GW1995 Weather Reports


time (UTC)temp
F
wind
direction
speed
knots
gust
knots
rain 1hr
in
rain 24hr
in
rain mn
in
humidity
%
barometer
mb
20260505214015 50 222 1.7 5.2 0.00 0.00 0.00 38 1009.8
20260505213513 50 267 1.7 5.2 0.00 0.00 0.00 39 1009.8
20260505213009 50 250 3.5 6.1 0.00 0.00 0.00 38 1009.8
20260505212506 51 272 3.5 5.2 0.00 0.00 0.00 37 1009.9
20260505212003 50 300 2.6 5.2 0.00 0.00 0.00 38 1009.9
20260505211501 50 266 5.2 8.7 0.00 0.00 0.00 37 1010.1
20260505210956 51 248 1.7 4.3 0.00 0.00 0.00 38 1010.0
20260505210453 50 285 3.5 5.2 0.00 0.00 0.00 38 1010.0
20260505205950 50 319 2.6 6.1 0.00 0.00 0.00 39 1010.2
20260505205449 49 243 1.7 7.0 0.00 0.00 0.00 39 1010.0
20260505204945 49 243 4.3 7.8 0.00 0.00 0.00 38 1010.1
20260505204443 50 214 2.6 7.8 0.00 0.00 0.00 39 1010.2
20260505203940 50 261 0.9 5.2 0.00 0.00 0.00 39 1010.1
20260505203437 50 303 4.3 5.2 0.00 0.00 0.00 38 1010.0
20260505202933 50 298 2.6 5.2 0.00 0.00 0.00 39 1010.1
20260505202429 50 252 1.7 2.6 0.00 0.00 0.00 38 1010.2
20260505201926 50 284 0.9 7.0 0.00 0.00 0.00 38 1010.2
20260505201423 50 228 1.7 2.6 0.00 0.00 0.00 39 1010.1
20260505200921 50 260 2.6 7.0 0.00 0.00 0.00 38 1010.1
20260505200418 51 266 4.3 7.8 0.00 0.00 0.00 37 1010.3
20260505195913 51 192 2.6 6.1 0.00 0.00 0.00 37 1010.0
20260505195411 50 263 4.3 7.0 0.00 0.00 0.00 37 1010.3
20260505194908 50 312 5.2 8.7 0.00 0.00 0.00 37 1010.3
20260505194406 50 304 3.5 5.2 0.00 0.00 0.00 36 1010.1
20260505193905 50 280 2.6 7.0 0.00 0.00 0.00 38 1010.1
20260505193404 49 356 0.9 7.8 0.00 0.00 0.00 37 1010.1
20260505192901 49 249 5.2 6.1 0.00 0.00 0.00 36 1010.1
20260505192359 50 265 3.5 7.8 0.00 0.00 0.00 36 1010.2
20260505191856 50 263 3.5 7.0 0.00 0.00 0.00 36 1010.1
20260505191355 50 335 4.3 7.0 0.00 0.00 0.00 36 1010.2
20260505190851 50 221 2.6 7.0 0.00 0.00 0.00 36 1010.2
20260505190347 49 269 2.6 7.8 0.00 0.00 0.00 37 1010.1
20260505185842 49 298 1.7 7.0 0.00 0.00 0.00 37 1010.3
20260505185339 50 252 1.7 7.0 0.00 0.00 0.00 36 1010.3
20260505184835 50 203 2.6 5.2 0.00 0.00 0.00 37 1010.1
20260505184332 50 169 1.7 4.3 0.00 0.00 0.00 38 1010.2
20260505183829 49 272 2.6 6.1 0.00 0.00 0.00 37 1010.4
20260505183326 50 335 2.6 7.0 0.00 0.00 0.00 36 1010.4
20260505182823 49 280 2.6 4.3 0.00 0.00 0.00 37 1010.4
20260505182320 49 285 6.1 8.7 0.00 0.00 0.00 35 1010.4
20260505181817 49 279 2.6 5.2 0.00 0.00 0.00 36 1010.4
20260505181314 49 290 2.6 7.0 0.00 0.00 0.00 37 1010.3
20260505180810 49 243 2.6 7.8 0.00 0.00 0.00 36 1010.3
20260505180307 50 240 4.3 7.8 0.00 0.00 0.00 35 1010.3
20260505175803 49 248 1.7 4.3 0.00 0.00 0.00 36 1010.4
20260505175300 48 257 2.6 4.3 0.00 0.00 0.00 35 1010.3
20260505174756 48 186 1.7 2.6 0.00 0.00 0.00 36 1010.4
20260505174254 48 290 4.3 7.0 0.00 0.00 0.00 36 1010.5
20260505173749 48 267 1.7 4.3 0.00 0.00 0.00 37 1010.4
20260505173246 48 265 5.2 7.0 0.00 0.00 0.00 35 1010.5
20260505172743 48 228 1.7 6.1 0.00 0.00 0.00 36 1010.6
20260505172240 48 261 2.6 6.1 0.00 0.00 0.00 35 1010.6
20260505171740 48 275 4.3 6.1 0.00 0.00 0.00 35 1010.6
20260505171238 48 295 2.6 6.1 0.00 0.00 0.00 33 1010.5
20260505170734 48 277 3.5 5.2 0.00 0.00 0.00 35 1010.4
20260505170231 49 286 1.7 6.1 0.00 0.00 0.00 34 1010.4
20260505165727 47 323 3.5 8.7 0.00 0.00 0.00 35 1010.5
20260505165223 47 205 3.5 7.0 0.00 0.00 0.00 35 1010.3
20260505164718 48 267 2.6 7.0 0.00 0.00 0.00 36 1010.4
20260505164216 48 319 2.6 7.0 0.00 0.00 0.00 35 1010.7
20260505163714 48 248 0.0 5.2 0.00 0.00 0.00 36 1010.4
20260505163212 48 319 1.7 6.1 0.00 0.00 0.00 35 1010.6
20260505162709 47 1 2.6 7.8 0.00 0.00 0.00 35 1010.3
20260505162206 48 352 5.2 8.7 0.00 0.00 0.00 35 1010.5
20260505161703 47 306 5.2 8.7 0.00 0.00 0.00 36 1010.4
20260505161200 47 336 4.3 7.0 0.00 0.00 0.00 35 1010.4
20260505160658 47 290 4.3 9.6 0.00 0.00 0.00 35 1010.4
20260505160155 47 261 2.6 8.7 0.00 0.00 0.00 36 1010.4
20260505153134 47 244 3.5 7.0 0.00 0.00 0.00 36 1010.3
20260505152631 46 266 2.6 6.1 0.00 0.00 0.00 38 1010.5
20260505152127 46 312 3.5 4.3 0.00 0.00 0.00 40 1010.5
20260505151622 46 179 4.3 7.0 0.00 0.00 0.00 37 1010.2
20260505151120 46 271 3.5 5.2 0.00 0.00 0.00 40 1010.4
20260505150616 45 248 2.6 2.6 0.00 0.00 0.00 40 1010.3
20260505150113 45 2 3.5 5.2 0.00 0.00 0.00 40 1010.1
20260505140541 44 258 3.5 6.1 0.00 0.00 0.00 41 1010.1
20260505124955 41 288 3.5 6.1 0.00 0.00 0.00 51 1009.5
20260505124452 42 232 2.6 6.1 0.00 0.00 0.00 51 1009.2
20260505123948 42 255 0.9 1.7 0.00 0.00 0.00 51 1009.3
20260505123445 41 278 0.0 2.6 0.00 0.00 0.00 52 1009.1
20260505122940 41 236 1.7 2.6 0.00 0.00 0.00 53 1009.1
20260505122438 41 280 2.6 2.6 0.00 0.00 0.00 53 1008.9
20260505121935 41 284 0.9 2.6 0.00 0.00 0.00 55 1008.9
20260505121432 41 264 0.9 1.7 0.00 0.00 0.00 56 1008.8
20260505120927 41 241 1.7 2.6 0.00 0.00 0.00 55 1008.9
20260505120424 40 253 0.9 2.6 0.00 0.00 0.00 55 1008.7
20260505115923 40 283 0.9 2.6 0.00 0.00 0.00 55 1008.6
20260505115420 40 231 1.7 1.7 0.00 0.00 0.00 55 1008.4
20260505114918 40 260 0.9 4.3 0.00 0.00 0.00 55 1008.3
20260505114414 40 271 0.9 2.6 0.00 0.00 0.00 55 1008.2
20260505113910 40 276 0.0 2.6 0.00 0.00 0.00 56 1008.3
20260505113407 40 258 0.9 2.6 0.00 0.00 0.00 56 1008.1
20260505112903 40 276 0.9 2.6 0.00 0.00 0.00 56 1008.0
20260505112401 40 231 2.6 4.3 0.00 0.00 0.00 57 1008.0
20260505111856 39 304 1.7 1.7 0.00 0.00 0.00 58 1007.8
20260505111351 39 288 0.9 2.6 0.00 0.00 0.00 58 1007.6
20260505110848 39 265 1.7 2.6 0.00 0.00 0.00 60 1007.5
20260505110345 39 276 0.9 1.7 0.00 0.00 0.00 61 1007.7
20260505101815 40 315 2.6 2.6 0.00 0.00 0.00 59 1007.3
20260505101310 40 292 0.9 4.3 0.00 0.00 0.00 59 1007.4
20260505100807 40 284 2.6 2.6 0.00 0.00 0.00 58 1007.3
20260505100303 41 298 1.7 5.2 0.00 0.00 0.00 58 1007.4
20260505095759 41 284 0.9 4.3 0.00 0.00 0.00 58 1007.6
20260505095257 41 282 1.7 4.3 0.00 0.00 0.00 57 1007.3
20260505094752 41 278 3.5 4.3 0.00 0.00 0.00 57 1007.3
20260505094249 41 273 2.6 5.2 0.00 0.00 0.00 57 1007.1
20260505093745 41 243 0.9 2.6 0.00 0.00 0.00 58 1007.4
20260505093243 41 287 2.6 2.6 0.00 0.00 0.00 58 1007.2
20260505092740 41 256 0.0 0.9 0.00 0.00 0.00 58 1007.1
20260505092238 41 278 0.9 0.9 0.00 0.00 0.00 57 1007.0
20260505091735 41 232 0.9 0.9 0.00 0.00 0.00 56 1007.0
20260505091233 42 289 0.9 2.6 0.00 0.00 0.00 55 1006.9
20260505090730 42 278 0.9 2.6 0.00 0.00 0.00 55 1006.8
20260505090229 42 264 1.7 2.6 0.00 0.00 0.00 54 1006.9
20260505085726 42 226 1.7 1.7 0.00 0.00 0.00 53 1006.7
20260505085224 42 264 1.7 8.7 0.00 0.00 0.00 53 1006.7
20260505084721 42 296 1.7 4.3 0.00 0.00 0.00 53 1006.8
20260505084220 42 317 2.6 2.6 0.00 0.00 0.00 54 1006.5
20260505083716 42 313 2.6 5.2 0.00 0.00 0.00 53 1006.4
20260505083213 42 273 1.7 4.3 0.00 0.00 0.00 53 1006.4
20260505082709 42 238 0.9 2.6 0.00 0.00 0.00 53 1006.2
20260505082206 42 280 1.7 2.6 0.00 0.00 0.00 53 1006.2
20260505081702 42 263 0.9 4.3 0.00 0.00 0.00 53 1006.1
20260505081200 42 278 1.7 2.6 0.00 0.00 0.00 53 1005.9
20260505080657 42 288 2.6 5.2 0.00 0.00 0.00 53 1006.0
20260505080152 43 270 2.6 4.3 0.00 0.00 0.00 53 1006.0
20260505075648 43 199 2.6 2.6 0.00 0.00 0.00 53 1006.1
20260505075145 43 271 1.7 2.6 0.00 0.00 0.00 52 1006.0
20260505074642 43 317 2.6 4.3 0.00 0.00 0.00 52 1006.0
20260505074139 43 251 0.9 2.6 0.00 0.00 0.00 52 1005.8
20260505073637 43 270 1.7 4.3 0.00 0.00 0.00 52 1005.9
20260505073135 43 325 1.7 4.3 0.00 0.00 0.00 52 1005.8
20260505072630 44 304 2.6 4.3 0.00 0.00 0.00 52 1005.8
20260505072127 43 278 2.6 5.2 0.00 0.00 0.00 52 1005.9
20260505071623 43 283 0.9 1.7 0.00 0.00 0.00 52 1005.9
20260505071121 44 274 1.7 4.3 0.00 0.00 0.00 52 1006.0
20260505070618 43 268 1.7 1.7 0.00 0.00 0.00 52 1005.9
20260505070114 44 269 1.7 1.7 0.00 0.00 0.00 52 1006.0
20260505065610 44 279 1.7 4.3 0.00 0.00 0.00 51 1006.0
20260505065107 44 249 0.9 4.3 0.00 0.00 0.00 51 1006.2
20260505064604 44 269 2.6 6.1 0.00 0.00 0.00 51 1006.1
20260505064102 44 309 2.6 2.6 0.00 0.00 0.00 52 1005.9
20260505063559 44 296 1.7 4.3 0.00 0.00 0.00 52 1006.1
20260505063055 44 282 1.7 2.6 0.00 0.00 0.00 53 1006.0
20260505062551 44 324 2.6 6.1 0.00 0.00 0.00 53 1006.1
20260505062049 44 278 2.6 4.3 0.00 0.00 0.00 52 1006.0
20260505061546 45 276 1.7 2.6 0.00 0.00 0.00 53 1006.1
20260505061044 45 273 2.6 4.3 0.00 0.00 0.00 53 1006.0
20260505060541 44 262 1.7 6.1 0.00 0.00 0.00 54 1005.9
20260505060038 44 210 1.7 4.3 0.00 0.00 0.00 55 1006.0
20260505055533 43 333 2.6 4.3 0.00 0.00 0.00 57 1006.0
20260505055030 43 230 0.0 1.7 0.00 0.00 0.00 56 1006.1
20260505054527 44 246 0.9 1.7 0.00 0.00 0.00 54 1006.1
20260505054026 43 270 0.0 2.6 0.00 0.00 0.00 55 1005.9
20260505053522 42 233 0.0 0.9 0.00 0.00 0.00 56 1006.0
20260505053019 42 216 0.0 0.9 0.00 0.00 0.00 56 1005.9
20260505052516 43 227 0.9 1.7 0.00 0.00 0.00 55 1006.0
20260505052014 43 231 0.9 0.9 0.00 0.00 0.00 55 1005.9
20260505051510 43 227 0.9 1.7 0.00 0.00 0.00 54 1005.9
20260505051008 43 236 0.9 0.9 0.00 0.00 0.00 54 1005.9
20260505050506 43 239 0.9 1.7 0.00 0.00 0.00 54 1005.6
20260505041434 44 240 0.9 1.7 0.00 0.00 0.00 50 1005.9
20260505040931 45 254 0.9 1.7 0.00 0.00 0.00 50 1005.6
20260505040428 45 219 0.9 1.7 0.00 0.00 0.00 49 1005.5
20260505035925 45 241 0.9 1.7 0.00 0.00 0.00 49 1005.6
20260505035421 45 227 0.9 1.7 0.00 0.00 0.00 48 1005.5
20260505034919 45 232 0.9 1.7 0.00 0.00 0.00 48 1005.5
20260505034415 46 234 0.9 1.7 0.00 0.00 0.00 47 1005.7
20260505033912 46 240 0.9 2.6 0.00 0.00 0.00 46 1005.7
20260505033408 46 257 0.9 1.7 0.00 0.00 0.00 46 1005.6
20260505032907 46 248 1.7 2.6 0.00 0.00 0.00 45 1005.7
20260505032403 47 252 0.9 0.9 0.00 0.00 0.00 46 1005.7
20260505031900 47 247 0.0 1.7 0.00 0.00 0.00 45 1005.7
20260505031357 47 244 0.9 0.9 0.00 0.00 0.00 45 1005.7
20260505030854 47 262 0.9 1.7 0.00 0.00 0.00 44 1005.4
20260505030344 47 255 1.7 2.6 0.00 0.00 0.00 44 1005.6
20260505025840 48 251 0.9 2.6 0.00 0.00 0.00 43 1005.4
20260505025338 48 252 0.9 2.6 0.00 0.00 0.00 43 1005.4
20260505024836 48 287 2.6 4.3 0.00 0.00 0.00 43 1005.3
20260505024334 48 266 0.0 2.6 0.00 0.00 0.00 43 1005.3
20260505023830 48 251 0.9 1.7 0.00 0.00 0.00 43 1005.1
20260505023327 48 244 1.7 2.6 0.00 0.00 0.00 42 1005.3
20260505022825 48 258 1.7 5.2 0.00 0.00 0.00 41 1005.1
20260505022321 48 264 0.9 1.7 0.00 0.00 0.00 41 1005.1
20260505021819 48 292 2.6 7.0 0.00 0.00 0.00 40 1005.1
20260505021315 49 259 0.9 5.2 0.00 0.00 0.00 41 1004.7
20260505020811 49 258 2.6 6.1 0.00 0.00 0.00 42 1004.7
20260505020307 49 289 2.6 4.3 0.00 0.00 0.00 42 1004.8
20260505015804 49 309 6.1 7.0 0.00 0.00 0.00 42 1004.5
20260505015301 49 274 3.5 7.8 0.00 0.00 0.00 42 1004.5
20260505014758 50 310 3.5 8.7 0.00 0.00 0.00 42 1004.5
20260505014255 50 279 1.7 7.0 0.00 0.00 0.00 42 1004.2
20260505013751 50 274 4.3 6.1 0.00 0.00 0.00 41 1004.1
20260505013249 50 278 3.5 13.0 0.00 0.00 0.00 41 1004.0
20260505012747 51 292 5.2 6.1 0.00 0.00 0.00 41 1003.9
20260505012244 51 220 2.6 7.0 0.00 0.00 0.00 41 1003.5
20260505011739 51 280 5.2 9.6 0.00 0.00 0.00 41 1003.7
20260505011237 51 289 5.2 7.0 0.00 0.00 0.00 40 1003.5
20260505010732 52 311 3.5 7.8 0.00 0.00 0.00 40 1003.5
20260505010229 52 272 2.6 8.7 0.00 0.00 0.00 39 1003.4
20260505005726 52 271 4.3 6.1 0.00 0.00 0.00 39 1003.1
20260505005223 52 238 4.3 7.0 0.00 0.00 0.00 38 1002.9
20260505004720 52 315 7.0 7.8 0.00 0.00 0.00 38 1002.8
20260505004216 53 231 2.6 8.7 0.00 0.00 0.00 39 1003.0
20260505003713 53 260 2.6 7.0 0.00 0.00 0.00 39 1002.8
20260505003211 53 226 2.6 7.0 0.00 0.00 0.00 38 1002.8
20260505002707 53 325 4.3 7.0 0.00 0.00 0.00 38 1002.8
20260505002205 53 242 0.9 5.2 0.00 0.00 0.00 40 1002.9
20260505001702 53 265 3.5 5.2 0.00 0.00 0.00 39 1002.6
20260505001159 53 237 2.6 4.3 0.00 0.00 0.00 39 1002.6
20260505000656 54 263 5.2 7.0 0.00 0.00 0.00 39 1002.6
20260505000154 54 20 4.3 6.1 0.00 0.00 0.00 39 1002.3
20260504235650 54 267 0.9 6.1 0.00 0.00 0.00 40 1002.4
20260504235147 54 324 5.2 6.1 0.00 0.00 0.00 40 1002.4
20260504234644 54 310 2.6 7.0 0.00 0.00 0.00 40 1002.3
20260504234142 54 308 4.3 7.8 0.00 0.00 0.00 40 1002.3
20260504233637 54 261 2.6 7.8 0.00 0.00 0.00 39 1002.2
20260504233133 55 272 5.2 6.1 0.00 0.00 0.00 38 1002.1
20260504232631 55 242 1.7 8.7 0.00 0.00 0.00 40 1002.0
20260504232128 55 270 4.3 6.1 0.00 0.00 0.00 40 1002.1
20260504231624 55 315 4.3 7.0 0.00 0.00 0.00 40 1001.9
20260504231121 55 252 2.6 9.6 0.00 0.00 0.00 39 1002.0
20260504230616 56 298 6.1 7.8 0.00 0.00 0.00 39 1002.0
20260504230116 56 263 0.9 5.2 0.00 0.00 0.00 39 1001.7
20260504225613 57 295 5.2 7.0 0.00 0.00 0.00 38 1001.6
20260504225109 58 289 4.3 7.8 0.00 0.00 0.00 38 1001.7
20260504224606 57 306 7.0 9.6 0.00 0.00 0.00 37 1001.6
20260504224103 57 288 2.6 8.7 0.00 0.00 0.00 38 1001.3
20260504223600 57 284 4.3 7.8 0.00 0.00 0.00 38 1001.2
20260504223055 57 282 6.1 13.9 0.00 0.00 0.00 38 1001.1
20260504222553 58 319 7.0 9.6 0.00 0.00 0.00 38 1001.0
20260504222050 59 233 4.3 7.0 0.00 0.00 0.00 36 1000.9
20260504221547 59 242 3.5 13.0 0.00 0.00 0.00 37 1000.7
20260504221044 60 295 4.3 12.2 0.00 0.00 0.00 37 1000.7
20260504220540 59 354 3.5 7.0 0.00 0.00 0.00 36 1000.5
20260504220038 58 236 3.5 5.2 0.00 0.00 0.00 37 1000.5
20260504215534 60 284 3.5 7.8 0.00 0.00 0.00 35 1000.4
20260504215032 60 282 5.2 8.7 0.00 0.00 0.00 36 1000.5
20260504214527 60 303 2.6 9.6 0.00 0.00 0.00 36 1000.4